Location: Drocourt
(49.0571°N, 1.7669°E)
Time: 02:14:48
(UTC+00:00)

Transit 4A - Pass Details

Date: 15 April 2024
Orbit: 871 x 971 km, 66.8° (Epoch: 19 May)

Event Time Altitude Azimuth Distance (km) Brightness Sun altitude
Rises 21:31:34 0° 325° (NW) 3,474 12.4 -23.1°
Reaches altitude 10° 21:34:06 10° 329° (NNW) 2,530 11.3 -23.4°
Maximum altitude 21:39:52 58° 49° (NE) 1,012 8.0 -23.9°
Enters shadow 21:41:13 47° 97° (E) 1,150 8.1 -24.1°
Drops below altitude 10° 21:45:37 10° 128° (SE) 2,532 - -24.5°
Sets 21:48:10 0° 132° (SE) 3,478 - -24.7°
